• In Belgien
  • Länderverzeichnis
  • Für 7 Tage
  • Wassertemperatur
  • Satellitenkarten
  • Wetterkarte
  • Widgets
  • user-avatar
    Anmelden

    Stündliche Wetter Podewsie

    Heute, 24 September, Montag

    Zeit Temperatur Niederschläge Wind Luftdruck Luftfeuchtigkeit
    00:00 +9°C° 0.7 mm 7 m/S 743 mmHg 89%
    01:00 +7°C° 0.7 mm 9 m/S 745 mmHg 87%
    02:00 +7°C° 0.1 mm 8 m/S 746 mmHg 86%
    03:00 +7°C° 0.1 mm 8 m/S 748 mmHg 86%
    04:00 +7°C° 0.1 mm 8 m/S 749 mmHg 85%
    05:00 +7°C° 0 mm 8 m/S 750 mmHg 84%
    06:00 +7°C° 0 mm 8 m/S 750 mmHg 83%
    07:00 +6°C° 0 mm 8 m/S 751 mmHg 81%
    08:00 +7°C° 0.1 mm 9 m/S 752 mmHg 78%
    09:00 +7°C° 0.1 mm 9 m/S 753 mmHg 74%
    10:00 +8°C° 0.1 mm 9 m/S 753 mmHg 71%
    11:00 +8°C° 0.2 mm 9 m/S 754 mmHg 66%
    12:00 +10°C° 0.2 mm 9 m/S 754 mmHg 61%
    13:00 +11°C° 0.2 mm 10 m/S 754 mmHg 57%
    14:00 +11°C° 0.2 mm 9 m/S 754 mmHg 56%
    15:00 +11°C° 0.2 mm 9 m/S 755 mmHg 55%
    16:00 +11°C° 0.2 mm 8 m/S 755 mmHg 54%
    17:00 +10°C° 0.1 mm 7 m/S 755 mmHg 57%
    18:00 +9°C° 0.1 mm 6 m/S 756 mmHg 60%
    19:00 +8°C° 0.1 mm 5 m/S 757 mmHg 63%
    20:00 +7°C° 0 mm 5 m/S 757 mmHg 65%
    21:00 +7°C° 0 mm 5 m/S 758 mmHg 67%
    22:00 +6°C° 0 mm 5 m/S 758 mmHg 69%
    23:00 +6°C° 0 mm 5 m/S 759 mmHg 70%

    Morgen, 25 September, Dienstag

    Zeit Temperatur Niederschläge Wind Luftdruck Luftfeuchtigkeit
    00:00 +6°C° 0 mm 5 m/S 759 mmHg 71%
    01:00 +5°C° 0 mm 5 m/S 760 mmHg 73%
    02:00 +5°C° 0 mm 5 m/S 760 mmHg 74%
    03:00 +5°C° 0 mm 5 m/S 760 mmHg 76%
    04:00 +3°C° 0 mm 5 m/S 761 mmHg 77%
    05:00 +5°C° 0 mm 5 m/S 761 mmHg 77%
    06:00 +5°C° 0 mm 5 m/S 762 mmHg 77%
    07:00 +5°C° 0 mm 5 m/S 762 mmHg 77%
    08:00 +6°C° 0 mm 5 m/S 763 mmHg 71%
    09:00 +8°C° 0 mm 5 m/S 763 mmHg 65%
    10:00 +9°C° 0 mm 5 m/S 764 mmHg 60%
    11:00 +10°C° 0.1 mm 5 m/S 763 mmHg 56%
    12:00 +12°C° 0.1 mm 5 m/S 763 mmHg 53%
    13:00 +13°C° 0.1 mm 5 m/S 763 mmHg 49%
    14:00 +13°C° 0 mm 4 m/S 763 mmHg 49%
    15:00 +13°C° 0 mm 4 m/S 764 mmHg 49%
    16:00 +12°C° 0 mm 4 m/S 764 mmHg 49%
    17:00 +11°C° 0 mm 3 m/S 764 mmHg 55%
    18:00 +10°C° 0 mm 3 m/S 764 mmHg 60%
    19:00 +8°C° 0 mm 2 m/S 765 mmHg 66%
    20:00 +8°C° 0 mm 2 m/S 765 mmHg 68%
    21:00 +7°C° 0 mm 2 m/S 766 mmHg 69%
    22:00 +8°C° 0 mm 1 m/S 766 mmHg 71%
    23:00 +8°C° 0 mm 1 m/S 766 mmHg 72%

    übermorgen, 26 September, Mittwoch

    Zeit Temperatur Niederschläge Wind Luftdruck Luftfeuchtigkeit
    00:00 +7°C° 0 mm 1 m/S 766 mmHg 73%
    01:00 +6°C° 0 mm 2 m/S 766 mmHg 74%
    02:00 +6°C° 0 mm 2 m/S 766 mmHg 74%
    03:00 +5°C° 0 mm 2 m/S 765 mmHg 74%
    04:00 +5°C° 0 mm 2 m/S 765 mmHg 75%
    05:00 +6°C° 0 mm 2 m/S 765 mmHg 73%
    06:00 +6°C° 0 mm 2 m/S 765 mmHg 72%
    07:00 +6°C° 0 mm 2 m/S 765 mmHg 70%
    08:00 +9°C° 0 mm 2 m/S 765 mmHg 63%
    09:00 +11°C° 0 mm 3 m/S 765 mmHg 55%
    10:00 +13°C° 0 mm 3 m/S 764 mmHg 48%
    11:00 +14°C° 0 mm 4 m/S 764 mmHg 45%
    12:00 +14°C° 0 mm 4 m/S 763 mmHg 42%
    13:00 +15°C° 0 mm 4 m/S 763 mmHg 39%
    14:00 +15°C° 0 mm 4 m/S 762 mmHg 41%
    15:00 +16°C° 0 mm 3 m/S 761 mmHg 43%
    16:00 +16°C° 0 mm 3 m/S 761 mmHg 45%
    17:00 +14°C° 0 mm 3 m/S 761 mmHg 47%
    18:00 +13°C° 0 mm 3 m/S 761 mmHg 49%
    19:00 +12°C° 0 mm 3 m/S 760 mmHg 51%
    20:00 +12°C° 0 mm 3 m/S 760 mmHg 51%
    21:00 +11°C° 0 mm 4 m/S 760 mmHg 50%
    22:00 +11°C° 0 mm 4 m/S 760 mmHg 50%
    23:00 +11°C° 0 mm 4 m/S 760 mmHg 51%

    27 September, Donnerstag

    Zeit Temperatur Niederschläge Wind Luftdruck Luftfeuchtigkeit
    00:00 +11°C° 0 mm 4 m/S 760 mmHg 51%
    01:00 +11°C° 0 mm 4 m/S 760 mmHg 52%
    02:00 +11°C° 0 mm 4 m/S 759 mmHg 52%
    03:00 +11°C° 0 mm 4 m/S 759 mmHg 52%
    04:00 +12°C° 0 mm 4 m/S 759 mmHg 51%
    05:00 +12°C° 0 mm 4 m/S 759 mmHg 53%
    06:00 +12°C° 0 mm 4 m/S 759 mmHg 55%
    07:00 +12°C° 0 mm 4 m/S 759 mmHg 57%
    08:00 +14°C° 0 mm 4 m/S 759 mmHg 55%
    09:00 +15°C° 0 mm 5 m/S 759 mmHg 54%
    10:00 +17°C° 0 mm 5 m/S 759 mmHg 53%
    11:00 +19°C° 0 mm 5 m/S 758 mmHg 53%
    12:00 +21°C° 0 mm 5 m/S 758 mmHg 53%
    13:00 +22°C° 0 mm 5 m/S 757 mmHg 53%
    14:00 +22°C° 0 mm 5 m/S 757 mmHg 54%
    15:00 +22°C° 0 mm 4 m/S 756 mmHg 55%
    16:00 +22°C° 0 mm 4 m/S 756 mmHg 57%
    17:00 +20°C° 0 mm 4 m/S 756 mmHg 61%
    18:00 +18°C° 0 mm 3 m/S 755 mmHg 65%
    19:00 +17°C° 0 mm 3 m/S 755 mmHg 70%
    20:00 +17°C° 0 mm 3 m/S 755 mmHg 69%
    21:00 +16°C° 0 mm 3 m/S 755 mmHg 68%
    22:00 +16°C° 0 mm 3 m/S 755 mmHg 67%
    23:00 +16°C° 0 mm 3 m/S 754 mmHg 67%

    28 September, Freitag

    Zeit Temperatur Niederschläge Wind Luftdruck Luftfeuchtigkeit
    00:00 +14°C° 0 mm 3 m/S 754 mmHg 67%
    01:00 +14°C° 0 mm 3 m/S 754 mmHg 67%
    02:00 +14°C° 0 mm 3 m/S 753 mmHg 69%
    03:00 +13°C° 0 mm 3 m/S 753 mmHg 71%
    04:00 +13°C° 0 mm 3 m/S 753 mmHg 72%
    05:00 +12°C° 0 mm 3 m/S 753 mmHg 72%
    06:00 +12°C° 0 mm 3 m/S 754 mmHg 72%
    07:00 +12°C° 0 mm 3 m/S 754 mmHg 73%
    08:00 +14°C° 0 mm 3 m/S 754 mmHg 71%
    09:00 +16°C° 0 mm 3 m/S 754 mmHg 69%
    10:00 +17°C° 0 mm 3 m/S 754 mmHg 68%
    11:00 +17°C° 0 mm 3 m/S 754 mmHg 69%
    12:00 +17°C° 0 mm 3 m/S 754 mmHg 71%
    13:00 +17°C° 0 mm 3 m/S 754 mmHg 72%
    14:00 +16°C° 0 mm 3 m/S 754 mmHg 71%
    15:00 +16°C° 0 mm 3 m/S 754 mmHg 71%
    16:00 +16°C° 0 mm 3 m/S 754 mmHg 70%
    17:00 +15°C° 0 mm 2 m/S 754 mmHg 72%
    18:00 +14°C° 0 mm 2 m/S 754 mmHg 74%
    19:00 +13°C° 0 mm 2 m/S 755 mmHg 75%
    20:00 +13°C° 0 mm 2 m/S 755 mmHg 74%
    21:00 +12°C° 0 mm 2 m/S 755 mmHg 73%
    22:00 +12°C° 0 mm 2 m/S 756 mmHg 71%
    23:00 +10°C° 0 mm 2 m/S 756 mmHg 72%

    29 September, Samstag

    Zeit Temperatur Niederschläge Wind Luftdruck Luftfeuchtigkeit
    00:00 +10°C° 0 mm 2 m/S 756 mmHg 74%
    01:00 +9°C° 0 mm 2 m/S 756 mmHg 75%
    02:00 +8°C° 0 mm 2 m/S 756 mmHg 78%
    03:00 +8°C° 0 mm 2 m/S 756 mmHg 81%
    04:00 +7°C° 0 mm 2 m/S 757 mmHg 83%
    05:00 +7°C° 0 mm 2 m/S 757 mmHg 83%
    06:00 +7°C° 0 mm 2 m/S 758 mmHg 82%
    07:00 +7°C° 0 mm 2 m/S 758 mmHg 81%
    08:00 +9°C° 0 mm 2 m/S 758 mmHg 73%
    09:00 +10°C° 0 mm 2 m/S 759 mmHg 65%
    10:00 +12°C° 0 mm 3 m/S 759 mmHg 57%
    11:00 +13°C° 0 mm 3 m/S 759 mmHg 53%
    12:00 +13°C° 0 mm 3 m/S 759 mmHg 49%
    13:00 +14°C° 0 mm 3 m/S 758 mmHg 45%
    14:00 +15°C° 0 mm 2 m/S 758 mmHg 45%
    15:00 +15°C° 0 mm 2 m/S 758 mmHg 45%
    16:00 +15°C° 0 mm 2 m/S 758 mmHg 46%
    17:00 +13°C° 0 mm 2 m/S 758 mmHg 51%
    18:00 +12°C° 0 mm 2 m/S 758 mmHg 56%
    19:00 +9°C° 0 mm 2 m/S 758 mmHg 62%
    20:00 +9°C° 0 mm 2 m/S 758 mmHg 65%
    21:00 +8°C° 0 mm 2 m/S 758 mmHg 67%
    22:00 +8°C° 0 mm 2 m/S 759 mmHg 70%
    23:00 +8°C° 0 mm 2 m/S 758 mmHg 71%
    Mehr zeigen

    3.3.7123123